Theta_e
346 346 347 347 346 346 346 346 346 345 345 344 345 345 344 344 345 347 350 354 354 353 351 351 352 352 349 345 345 343 341 340 335 337 337 337 336 336 337 338 339 338 337
346 347 347 347 347 347 347 346 346 346 346 343 344 345 345 345 344 347 349 351 353 354 354 352 351 350 351 352 351 349 343 342 339 337 338 339 339 338 336 336 338 339 339
347 347 347 348 347 347 347 347 347 346 346 346 345 346 344 343 346 349 352 352 352 353 353 354 353 351 350 350 352 352 350 348 345 341 339 338 338 339 339 338 337 336 337
347 348 348 348 348 347 347 347 347 347 347 347 346 345 344 344 347 350 350 351 353 353 353 353 353 353 352 351 350 350 352 352 351 349 344 341 340 339 337 338 338 338 338
346 348 348 348 348 348 348 348 348 348 348 347 347 347 346 345 346 347 350 353 354 355 353 353 353 353 352 351 352 350 348 351 350 348 346 345 343 342 341 342 339 338 338
346 346 348 349 348 348 348 348 348 349 349 349 349 349 348 347 346 346 346 346 348 351 355 355 353 353 352 351 351 352 352 350 350 349 348 348 347 345 345 343 341 339 340
347 347 347 348 349 350 350 350 349 348 348 348 349 350 349 348 346 345 346 348 348 347 348 352 355 355 354 353 353 353 353 353 352 353 351 350 348 348 346 344 341 341 341
349 348 348 349 349 350 351 351 351 351 350 350 349 349 349 349 347 346 345 348 349 350 349 349 350 351 352 352 352 353 354 354 354 354 354 353 352 352 351 350 348 344 340
349 349 350 350 350 350 351 352 352 353 353 352 352 351 351 351 351 351 351 350 350 351 352 352 352 352 352 353 354 354 355 355 356 356 357 357 357 357 355 350 347 341 341
350 350 351 351 352 352 351 352 353 354 354 355 354 354 353 353 354 354 353 352 351 352 352 353 353 354 355 355 356 355 355 356 356 356 357 357 358 358 357 357 352 345 344
348 350 351 352 352 353 354 354 354 355 356 357 357 357 357 357 357 358 358 356 354 354 354 355 356 356 357 357 357 357 356 358 357 357 357 357 357 357 355 355 356 352 345
346 349 350 351 353 354 354 355 356 357 357 358 359 359 360 360 360 361 361 361 360 356 357 357 357 358 359 360 359 359 359 359 357 355 355 356 356 356 356 354 353 351 350
345 346 349 352 353 354 356 356 357 358 359 359 360 360 360 361 361 361 362 362 362 361 360 360 360 360 361 361 361 361 360 358 356 352 352 353 353 352 351 348 346 344 345
351 348 347 347 349 353 356 357 358 358 359 359 360 360 360 360 360 361 361 362 362 362 362 361 361 361 361 361 361 362 361 362 362 355 352 351 350 349 345 343 342 343 340
350 353 358 357 355 353 352 353 356 357 358 358 358 359 360 360 360 361 361 362 363 363 363 360 356 357 356 357 359 361 362 361 357 355 353 350 348 343 341 339 340 340 336
349 350 354 356 358 359 357 357 357 357 357 358 359 360 360 360 361 361 362 363 364 364 361 356 355 355 355 355 355 355 355 354 354 352 349 345 341 340 339 337 337 336 334
333 342 348 351 355 357 355 352 349 353 357 359 360 360 361 362 362 363 364 364 364 364 358 358 357 358 358 356 355 355 354 353 352 348 343 338 337 335 335 333 332 333 333
320 331 342 347 349 352 355 356 353 352 348 350 352 356 361 362 363 364 364 364 362 361 360 357 355 357 356 355 353 352 349 347 343 339 337 336 336 334 331 331 332 332 331
319 323 334 343 346 350 350 352 353 352 350 350 349 350 354 360 362 363 364 363 361 358 357 356 354 352 351 350 349 347 344 340 336 334 336 336 334 334 332 332 331 331 330
317 321 328 339 345 348 348 350 350 350 349 347 346 347 346 345 348 352 352 352 351 351 351 350 348 347 346 345 342 338 335 333 333 334 335 334 335 333 330 330 330 327 327
321 323 327 334 343 346 347 347 350 348 347 346 345 347 350 348 345 347 347 344 342 340 340 340 340 339 336 334 333 332 332 331 331 331 333 332 333 331 331 329 330 328 327
324 327 332 337 339 343 346 347 350 348 346 342 341 342 342 342 342 340 338 337 335 334 334 334 334 334 334 334 333 332 331 331 331 332 329 330 330 330 330 329 329 328 326
324 326 331 336 338 340 343 345 346 347 346 342 340 338 337 336 336 334 333 332 332 333 333 334 334 334 333 333 333 332 332 331 331 330 330 330 329 329 330 329 329 328 326
325 328 330 333 335 338 339 338 337 335 334 334 334 333 333 332 331 330 330 329 331 331 332 332 332 333 332 332 332 332 332 331 331 331 332 331 331 329 330 329 328 327 326
317 320 324 328 327 326 325 323 322 320 319 317 316 318 321 323 323 324 325 326 326 327 326 329 327 328 328 328 329 329 330 331 331 332 331 332 332 331 330 329 328 326 325
307 307 306 307 308 308 308 307 307 307 306 307 308 307 307 306 306 305 305 309 314 316 317 319 320 318 318 318 319 320 328 330 331 331 330 331 332 330 329 328 328 327 326
Wind_Speed
40 41 38 40 41 42 43 41 36 32 28 29 28 25 24 24 24 26 27 26 25 24 23 24 25 22 21 19 20 19 18 15 13 19 23 23 21 20 20 21 24 27 30
41 41 40 40 40 41 43 43 39 35 30 30 29 26 25 25 26 25 27 29 28 29 28 27 28 26 26 25 23 23 23 22 20 22 26 25 26 24 23 24 26 28 30
36 37 36 35 36 41 43 43 41 37 35 32 32 32 32 30 28 26 26 27 31 32 32 33 32 30 29 30 30 29 28 27 26 28 28 26 32 31 28 28 28 30 32
36 36 36 37 41 42 42 41 40 38 37 36 35 34 33 32 30 28 30 30 30 32 33 35 36 35 34 32 32 33 33 31 30 29 29 29 30 33 29 32 33 36 35
36 35 37 37 38 39 40 42 40 39 39 39 38 38 38 37 37 35 33 32 31 32 34 34 35 37 36 34 33 33 33 33 27 27 24 24 25 24 26 26 31 36 38
36 37 36 36 38 40 41 40 39 38 39 39 40 41 42 41 42 41 41 40 39 37 36 36 36 36 36 36 36 36 37 35 31 27 28 26 28 26 30 30 30 23 18
36 36 35 36 37 37 37 35 37 39 38 39 38 38 39 42 43 44 42 40 39 41 42 41 40 39 39 39 39 40 40 40 41 39 33 32 32 29 31 29 30 29 31
34 31 31 33 33 32 33 34 33 33 36 37 37 38 38 41 41 41 41 40 42 42 43 43 43 40 41 41 40 40 41 41 40 41 44 47 42 38 36 40 38 31 30
30 32 35 36 33 33 33 32 33 31 32 36 37 37 38 40 39 38 37 39 41 42 40 41 42 42 41 39 37 36 39 39 40 38 38 39 38 37 38 33 31 24 25
35 34 32 33 34 34 35 34 33 33 31 30 30 35 38 38 37 36 35 37 34 33 34 40 42 42 40 38 38 36 34 31 31 34 36 34 33 34 31 33 39 27 25
26 29 31 34 35 34 30 31 30 30 28 27 28 31 34 34 34 32 32 36 34 30 31 31 34 38 37 38 38 39 37 38 34 30 30 29 31 31 31 33 32 32 24
30 32 33 35 34 33 35 32 32 31 28 27 27 27 29 32 32 31 31 34 35 34 31 28 30 31 29 28 31 34 34 36 40 33 29 25 25 25 23 21 21 24 28
25 28 29 30 32 31 31 27 25 27 26 24 22 23 24 26 31 31 31 31 32 39 37 31 29 29 27 27 27 28 31 36 37 30 28 27 21 20 19 21 19 19 22
14 19 23 21 25 27 27 26 25 24 23 22 22 23 22 22 26 27 29 30 32 35 37 38 35 31 28 28 28 28 29 31 32 30 23 23 20 21 19 15 16 14 8
16 13 12 11 16 23 26 26 26 25 26 23 25 22 21 21 29 26 25 27 28 29 30 32 29 30 28 28 30 31 30 29 27 24 22 22 19 14 13 11 8 4 6
15 12 9 5 4 9 15 20 26 27 26 28 26 23 26 26 22 18 18 20 20 21 22 20 21 22 22 22 22 21 20 19 18 17 16 14 12 10 6 4 3 5 7
12 8 8 6 2 4 7 11 14 18 24 30 29 29 28 26 24 20 17 17 22 24 23 24 23 23 23 20 19 18 17 15 13 13 12 11 7 5 3 5 5 6 8
14 11 7 7 7 4 6 10 12 10 12 16 16 21 28 30 26 23 22 19 21 23 26 22 21 21 18 18 17 15 14 13 13 12 9 8 7 7 5 5 5 7 10
17 13 11 9 9 9 8 10 13 14 14 14 12 13 14 21 23 26 23 21 23 24 24 21 17 14 14 14 14 13 13 13 12 10 10 10 9 7 5 7 6 8 12
21 17 14 12 12 13 10 11 13 15 14 15 16 17 13 12 15 18 20 18 16 16 15 15 14 12 12 12 12 11 11 11 11 11 11 11 12 7 8 10 9 10 11
24 21 16 14 11 12 14 15 16 15 15 16 16 17 17 17 16 18 17 14 12 11 10 9 8 8 9 9 9 9 10 11 13 13 12 11 11 9 10 12 11 9 11
22 19 15 14 14 15 18 20 16 16 16 15 15 15 17 18 15 17 16 14 11 10 9 9 9 8 7 8 8 8 8 8 10 11 12 12 11 11 10 10 10 11 12
22 19 15 14 16 20 19 19 21 20 18 16 15 18 21 18 17 18 17 17 15 15 12 10 10 9 8 7 7 7 8 7 8 10 11 11 11 13 13 11 12 14 15
18 16 14 14 17 16 12 11 11 10 7 9 13 19 20 21 20 18 17 15 17 15 15 12 12 11 10 10 10 10 10 10 9 9 9 12 13 13 12 10 12 14 14
9 8 8 6 7 13 15 13 13 11 11 11 12 12 14 17 16 17 18 18 16 16 16 15 9 9 7 6 7 9 10 11 11 11 11 12 12 11 11 12 13 12 13
21 21 19 17 17 18 19 18 19 18 15 18 19 19 19 19 15 12 8 14 18 20 17 18 15 10 8 6 4 4 7 10 11 10 8 10 12 11 11 12 15 14 14
Wind_Direction
202 207 208 214 220 224 231 235 235 236 233 232 237 240 242 244 246 242 241 243 244 251 255 256 259 265 265 262 262 264 264 262 258 285 289 294 293 292 288 278 269 263 260
203 203 207 213 216 219 227 234 235 235 232 231 232 235 239 244 247 246 244 244 245 247 250 253 258 261 263 265 267 266 263 261 258 268 283 285 285 285 279 275 273 269 266
197 199 203 206 208 216 222 230 234 233 232 231 232 237 243 245 246 247 247 247 250 252 253 252 255 256 260 261 261 263 264 263 262 263 271 276 278 280 282 280 275 271 270
194 197 199 201 209 215 220 226 231 232 233 233 234 236 237 238 243 247 250 251 252 256 258 256 255 256 259 262 263 264 266 266 265 263 266 272 277 280 278 276 275 273 270
192 196 200 203 208 214 218 226 229 232 234 235 235 235 238 239 240 241 245 249 253 257 258 257 255 256 260 263 264 267 268 268 264 265 263 267 267 270 266 274 272 275 274
191 196 199 201 206 213 218 221 227 227 234 236 238 238 238 238 240 241 244 247 250 254 256 258 258 259 259 261 263 264 265 263 259 255 262 262 264 262 269 266 267 264 272
191 196 197 200 204 209 212 214 222 225 228 232 233 236 237 242 244 245 245 246 247 250 253 256 258 260 261 263 266 267 267 264 263 259 260 259 266 263 269 269 264 258 261
191 192 195 197 202 205 208 212 218 222 225 230 234 237 241 244 247 248 248 246 246 248 252 253 254 255 259 264 266 267 269 271 268 267 265 269 266 267 264 266 270 269 273
187 191 195 198 198 202 207 210 216 218 223 230 234 236 238 244 248 248 246 243 244 245 246 251 252 255 256 259 260 259 265 266 273 276 279 282 283 283 282 268 269 265 270
191 194 195 197 200 203 210 210 215 217 221 225 228 235 242 245 249 249 245 239 238 242 245 248 249 253 256 258 257 253 256 261 266 269 275 282 284 285 286 280 276 261 260
186 191 198 204 206 212 211 213 213 216 218 221 226 234 239 244 246 249 245 238 233 237 240 242 245 252 254 255 256 253 252 269 267 267 267 268 275 281 285 288 287 279 260
192 197 204 209 207 209 213 211 211 213 215 218 220 228 234 242 247 248 247 243 244 234 238 241 243 251 256 257 254 255 261 265 264 268 271 270 269 273 282 290 298 294 291
194 202 212 210 209 208 206 207 204 208 212 218 218 225 231 233 239 247 252 251 249 245 247 248 253 260 262 261 260 260 261 261 263 259 261 266 274 283 290 301 308 316 310
167 196 212 210 212 211 211 210 208 209 213 219 220 224 230 230 234 245 245 247 249 250 250 252 254 254 254 255 253 256 255 258 261 259 262 270 280 292 300 311 314 313 294
96 113 134 168 204 218 217 214 215 221 221 220 226 225 219 222 231 246 246 244 245 248 252 253 254 256 255 257 259 259 258 256 257 262 264 273 282 292 299 318 306 278 224
60 65 77 97 180 206 207 216 226 229 228 231 232 231 239 253 261 258 249 250 254 256 246 236 240 241 241 245 246 252 258 255 253 255 257 260 270 278 296 297 262 238 227
25 20 43 54 52 204 208 218 234 241 243 244 243 242 243 248 245 245 245 244 246 249 236 241 238 237 242 247 249 257 253 244 238 235 239 250 250 240 229 258 239 228 211
353 356 355 358 354 317 243 235 238 233 239 247 248 242 239 239 239 239 241 241 238 234 240 237 241 251 252 249 245 236 226 223 222 227 224 218 204 192 209 238 224 210 201
331 328 328 327 333 315 294 270 254 248 246 247 238 242 242 237 235 236 241 235 234 232 234 237 241 242 241 237 229 223 223 220 211 205 201 213 202 203 204 191 182 190 187
312 312 317 312 314 312 296 274 264 253 244 237 231 231 223 201 197 203 207 216 222 230 230 231 238 237 235 229 219 209 204 205 207 212 211 210 206 203 193 187 183 178 179
296 294 291 283 276 289 289 277 267 254 246 240 238 235 224 212 217 206 198 205 216 224 227 227 216 206 200 205 212 220 225 229 229 219 206 207 199 205 196 195 193 188 169
286 279 276 274 279 275 275 276 258 255 245 235 229 218 213 201 200 194 189 183 180 179 181 184 186 192 206 213 215 222 220 228 229 217 216 212 208 207 201 189 185 183 173
282 277 276 277 277 277 269 263 260 251 241 231 217 199 189 192 183 176 172 166 168 168 173 179 175 172 172 184 197 211 225 234 229 217 206 201 205 198 195 194 193 193 190
290 280 271 265 271 272 262 260 267 266 246 217 194 185 179 177 167 165 161 161 161 160 159 162 163 168 175 187 198 210 219 221 211 216 220 216 210 202 204 201 207 203 197
8 30 57 81 114 117 111 109 105 100 94 86 74 103 136 148 150 156 160 157 151 146 146 145 153 160 167 181 203 219 224 222 226 231 222 214 211 207 213 217 214 206 201
50 55 58 66 77 79 86 85 89 93 83 95 97 89 94 85 88 87 101 133 138 135 132 131 134 131 132 131 141 204 208 210 215 224 222 211 214 218 225 228 219 213 209